Meteopurmerend
purmerend
Purmerend - Baaienwijk



My webcam  My webcam


Onweer radar Meer informatie blitzortung!


Regen radar Meer informatie rain snow radar


Bezoek onze andere website:

CandyAppleRed WebdesignWebdesign Purmerend Candy Apple Red

MeteopurmerendBlog

Template documentation
and downloads



Het weer levert geen direct gevaar op.    Er zijn geen waarschuwingen afgegeven.

15 daagse weersverwachting Lidingö (SE)

  • Overzicht
  • Per uur
  • 15 dagen
  • Extra
  • Vergelijk
  • Kaarten
  • Dagkaart
  • Meer »
  • Info
  • Statistieken
  • Directe link
    Temp 6h Neerslag Wind  
 03:53     21:38    Daglengte: 17:45 Vandaag
14:00
15°
 
4
20:00
13°
 
2
 03:52     21:40    Daglengte: 17:48 Morgen
02:00
11°
1.1 mm
4
08:00
10°
12.7 mm
6
14:00
12°
11.1 mm
6
20:00
11°
7.1 mm
4
 03:50     21:41    Daglengte: 17:51 Zaterdag 28 Mei
02:00
8.8 mm
3
08:00
10°
 
3
14:00
12°
46.9 mm
4
20:00
11°
48.5 mm
3
 03:49     21:43    Daglengte: 17:54 Zondag 29 Mei
02:00
25.8 mm
4
Locatie info
Region: Stockholms län
Latitude: 59.3652°N
Longitude: 18.1329°E
30 masl
Postcode: 181 32
Temp/Neerslag /Baro Onweer/Dauwpunt
    Temp Baro 1h Neerslag Dauwpunt Wind UV Bewolking  
 03:53     21:38    Daglengte: 17:45 Vandaag
09:00
13°
1002.4 hPa   6.1°
2
Windvlaag: 3.9 m/s
13%
10:00
14°
1001.7 hPa   6.1°
3
Windvlaag: 5 m/s
17%
11:00
15°
1001.1 hPa   6.0°
4
Windvlaag: 6.2 m/s
17%
12:00
15°
1000.6 hPa
22%
7.1°
4
Windvlaag: 6.2 m/s
21%
13:00
15°
1000.2 hPa
40%
7.6°
4
Windvlaag: 6.1 m/s
60%
14:00
15°
1000.0 hPa
80%
6.4°
4
Windvlaag: 6.6 m/s
60%
15:00
14°
999.7 hPa
82%
7.1°
4
Windvlaag: 5.5 m/s
46%
16:00
14°
999.6 hPa
81%
7.4°
4
Windvlaag: 5.3 m/s
71%
17:00
13°
999.3 hPa
75%
7.5°
3
Windvlaag: 5.2 m/s
74%
18:00
13°
999.0 hPa
68%
7.9°
3
Windvlaag: 3.6 m/s
71%
19:00
13°
998.7 hPa
58%
8.5°
2
Windvlaag: 2.5 m/s
16%
20:00
13°
998.5 hPa
14%
9.6°
2
Windvlaag: 2.3 m/s
19%
21:00
12°
998.5 hPa
14%
10.3°
2
Windvlaag: 2.6 m/s
22%
22:00
12°
998.5 hPa
14%
9.8°
3
Windvlaag: 2.8 m/s
63%
23:00
11°
998.5 hPa
14%
9.5°
3
Windvlaag: 3.2 m/s
71%
 03:52     21:40    Daglengte: 17:48 Morgen
00:00
11°
998.2 hPa
15%
9.6°
3
Windvlaag: 2.9 m/s
78%
01:00
11°
998.0 hPa
58%
9.7°
3
Windvlaag: 2.6 m/s
78%
02:00
11°
997.6 hPa 1.1 mm
73%
9.2°
4
Windvlaag: 3.6 m/s
82%
03:00
10°
997.3 hPa 2.1 mm
80%
8.7°
4
Windvlaag: 3.7 m/s
86%
04:00
10°
996.8 hPa 2.6 mm
82%
8.4°
5
Windvlaag: 3.4 m/s
86%
05:00
10°
Voelt als: 7.3°
996.5 hPa 2.3 mm
82%
8.2°
5
Windvlaag: 2.8 m/s
84%
06:00
10°
Voelt als: 6.7°
996.4 hPa 2.3 mm
82%
7.2°
6
Windvlaag: 2.7 m/s
85%
07:00
10°
Voelt als: 6.8°
996.0 hPa 2.1 mm
82%
7.0°
6
Windvlaag: 2.3 m/s
86%
08:00
10°
Voelt als: 6.9°
995.8 hPa 1.4 mm
82%
6.1°
6
Windvlaag: 4.1 m/s
85%
09:00
10°
995.6 hPa 1.4 mm
82%
4.6°
7
Windvlaag: 4 m/s
85%
10:00
11°
995.4 hPa 1.6 mm
82%
3.3°
7
Windvlaag: 3.7 m/s
86%
11:00
11°
995.3 hPa 1.8 mm
82%
2.4°
6
Windvlaag: 3.8 m/s
86%
12:00
11°
995.1 hPa 2.0 mm
82%
2.0°
6
Windvlaag: 3.1 m/s
86%
13:00
12°
995.0 hPa 2.1 mm
82%
1.5°
6
Windvlaag: 2.5 m/s
86%
14:00
12°
994.9 hPa 2.2 mm
82%
2.6°
6
Windvlaag: 1.6 m/s
85%
15:00
12°
994.9 hPa 2.4 mm
82%
5.8°
6
Windvlaag: 0.9 m/s
73%
16:00
12°
994.8 hPa 2.4 mm
82%
4.3°
6
Windvlaag: 1.2 m/s
86%
17:00
12°
994.6 hPa 2.3 mm
82%
5.7°
5
Windvlaag: 2.4 m/s
86%
18:00
12°
994.5 hPa
82%
5.8°
5
Windvlaag: 1.3 m/s
86%
19:00
12°
994.4 hPa
82%
5.3°
4
Windvlaag: 0.8 m/s
85%
20:00
11°
994.5 hPa
82%
6.7°
4
Windvlaag: 0.9 m/s
77%
21:00
11°
994.6 hPa
82%
7.7°
4
Windvlaag: 0 m/s
79%
22:00
10°
994.7 hPa
82%
8.0°
3
Windvlaag: 0.2 m/s
79%
23:00
10°
994.7 hPa 4.4 mm
82%
7.9°
3
Windvlaag: -0.3 m/s
73%
 03:50     21:41    Daglengte: 17:51 Zaterdag 28 Mei
00:00
10°
Voelt als: 8.3°
994.8 hPa 4.4 mm
82%
7.8°
3
Windvlaag: -0.8 m/s
75%
01:00
Voelt als: 7.9°
994.7 hPa
82%
7.1°
3
Windvlaag: -1.8 m/s
61%
02:00
Voelt als: 7.5°
994.6 hPa
82%
6.5°
3
Windvlaag: -1.6 m/s
52%
03:00
Voelt als: 6.9°
994.6 hPa
79%
6.9°
3
Windvlaag: -2.1 m/s
73%
04:00
Voelt als: 6.7°
994.7 hPa
82%
6.7°
3
Windvlaag: -2.1 m/s
86%
05:00
Voelt als: 6.7°
994.9 hPa
92%
7.7°
2
Windvlaag: -2.8 m/s
100%
06:00
Voelt als: 7.3°
995.1 hPa
34%
8.1°
2
Windvlaag: -2.9 m/s
99%
07:00
Voelt als: 7.9°
995.3 hPa
26%
8.8°
3
Windvlaag: -2.8 m/s
100%
08:00
10°
Voelt als: 8.2°
995.5 hPa
86%
8.5°
3
Windvlaag: -1.1 m/s
100%
09:00
10°
996.0 hPa 8.4 mm
100%
8.4°
3
Windvlaag: -2.5 m/s
97%
10:00
11°
996.5 hPa 8.2 mm
100%
7.2°
4
Windvlaag: -3 m/s
96%
11:00
12°
997.1 hPa 8.2 mm
100%
5.3°
5
Windvlaag: -4.3 m/s
100%
12:00
12°
997.5 hPa 5.1 mm
100%
4.7°
5
Windvlaag: -4.5 m/s
100%
13:00
12°
998.0 hPa 8.5 mm
100%
5.0°
4
Windvlaag: -4.2 m/s
99%
14:00
12°
998.3 hPa 8.5 mm
100%
5.7°
4
Windvlaag: -3.8 m/s
97%
15:00
12°
998.7 hPa 5.2 mm
100%
6.5°
5
Windvlaag: -3.8 m/s
100%
16:00
12°
999.0 hPa 8.6 mm
100%
4.9°
4
Windvlaag: -3.4 m/s
100%
17:00
12°
999.4 hPa 8.7 mm
100%
5.2°
4
Windvlaag: -3.5 m/s
100%
18:00
12°
999.8 hPa 8.8 mm
100%
5.1°
4
Windvlaag: -3.6 m/s
100%
19:00
11°
1000.0 hPa 8.7 mm
100%
5.1°
3
Windvlaag: -2.5 m/s
100%
20:00
11°
1000.2 hPa 8.6 mm
95%
7.6°
3
Windvlaag: -3 m/s
100%
21:00
11°
1000.3 hPa 8.6 mm
30%
7.5°
3
Windvlaag: -2.5 m/s
96%
22:00
11°
1000.5 hPa 8.7 mm
24%
7.0°
3
Windvlaag: -2.2 m/s
89%
23:00
10°
1000.7 hPa 8.5 mm
31%
5.6°
4
Windvlaag: -2.1 m/s
72%
 03:49     21:43    Daglengte: 17:54 Zondag 29 Mei
00:00
10°
1000.2 hPa
25%
4.3°
4
Windvlaag: 8.5 m/s
30%
01:00
Voelt als: 7.1°
1000.4 hPa
21%
3.7°
4
Windvlaag: 7.9 m/s
69%
02:00
Voelt als: 6.2°
1000.7 hPa
21%
2.7°
4
Windvlaag: 8.3 m/s
52%
03:00
Voelt als: 5.6°
1001.1 hPa
22%
2.3°
3
Windvlaag: 8.9 m/s
12%
04:00
Voelt als: 5.4°
1001.2 hPa
21%
2.4°
3
Windvlaag: 7.9 m/s
11%
05:00
Voelt als: 5.9°
1001.4 hPa
22%
2.1°
3
Windvlaag: 6.8 m/s
56%
06:00
Voelt als: 6.6°
1001.6 hPa
22%
2.5°
3
Windvlaag: 8 m/s
63%
07:00
Voelt als: 7.4°
1001.8 hPa
29%
3.2°
3
Windvlaag: 6.2 m/s
60%
08:00
10°
Voelt als: 8.0°
1002.1 hPa
22%
3.6°
4
Windvlaag: 5.9 m/s
55%
Temp/Neerslag /Baro Onweer/Dauwpunt
    Temp Baro Neerslag Dauwpunt Wind Bewolking  
 03:53     21:38    Daglengte: 17:45 Vandaag
11:00
15°
1001.1 hPa   6.0°
4
17%
14:00
15°
1000.0 hPa   6.4°
4
60%
17:00
13°
999.3 hPa   7.5°
3
74%
20:00
13°
998.5 hPa   9.6°
2
19%
23:00
11°
998.5 hPa   9.5°
3
71%
 03:52     21:40    Daglengte: 17:48 Morgen
02:00
11°
997.6 hPa 1.1 mm 9.2°
4
82%
05:00
10°
Voelt als: 7.3°
996.5 hPa 6.9 mm 8.2°
5
84%
08:00
10°
Voelt als: 6.9°
995.8 hPa 5.8 mm 6.1°
6
85%
11:00
11°
995.3 hPa 4.8 mm 2.4°
6
86%
14:00
12°
994.9 hPa 6.3 mm 2.6°
6
85%
17:00
12°
994.6 hPa 7.1 mm 5.7°
5
86%
20:00
11°
994.5 hPa   6.7°
4
77%
23:00
10°
994.7 hPa 4.4 mm 7.9°
3
73%
 03:50     21:41    Daglengte: 17:51 Zaterdag 28 Mei
02:00
Voelt als: 7.5°
994.6 hPa 4.4 mm 6.5°
3
52%
05:00
Voelt als: 6.7°
994.9 hPa   7.7°
2
100%
08:00
10°
Voelt als: 8.2°
995.5 hPa   8.5°
3
100%
11:00
12°
997.1 hPa 24.8 mm 5.3°
5
100%
14:00
12°
998.3 hPa 22.0 mm 5.7°
4
97%
17:00
12°
999.4 hPa 22.4 mm 5.2°
4
100%
20:00
11°
1000.2 hPa 26.1 mm 7.6°
3
100%
23:00
10°
1000.7 hPa 25.8 mm 5.6°
4
72%
 03:49     21:43    Daglengte: 17:54 Zondag 29 Mei
02:00
Voelt als: 6.2°
1000.7 hPa   2.7°
4
52%
05:00
Voelt als: 5.9°
1001.4 hPa   2.1°
3
56%
08:00
10°
Voelt als: 8.0°
1002.1 hPa   3.6°
4
55%
11:00
11°
1005.2 hPa 29.7 mm 4.9°
5
1%
14:00
13°
1006.0 hPa 29.8 mm 5.3°
3
1%
17:00
13°
1007.0 hPa 30.1 mm 5.9°
3
1%
20:00
11°
1007.7 hPa 30.3 mm 7.5°
1
1%
23:00
Voelt als: 8.1°
1008.6 hPa 30.3 mm 5.9°
1
1%
 03:47     21:45    Daglengte: 17:58 Maandag 30 Mei
02:00
1008.8 hPa 30.3 mm 5.8°
1
1%
05:00
1008.9 hPa 30.3 mm 5.9°
1
1%
08:00
10°
1009.6 hPa 30.3 mm 6.5°
0
1%
11:00
12°
1010.2 hPa 30.6 mm 7.3°
1
1%
14:00
13°
1010.4 hPa 31.0 mm 7.1°
2
1%
17:00
13°
1011.0 hPa 31.3 mm 7.0°
3
1%
20:00
12°
1011.6 hPa 31.4 mm 6.2°
3
1%
23:00
Voelt als: 6.8°
1012.4 hPa 31.4 mm 4.9°
3
1%
 03:46     21:47    Daglengte: 18:01 Dinsdag 31 Mei
02:00
Voelt als: 7.5°
1012.9 hPa 31.4 mm 4.8°
2
1%
05:00
Voelt als: 8.6°
1013.3 hPa 31.4 mm 6.3°
2
1%
08:00
12°
1014.0 hPa 31.4 mm 6.8°
2
1%
11:00
15°
1014.1 hPa 31.4 mm 7.2°
3
1%
14:00
15°
1014.1 hPa 31.4 mm 7.9°
4
1%
17:00
15°
1014.3 hPa 31.4 mm 8.6°
4
0%
20:00
13°
1014.4 hPa 31.4 mm 9.0°
3
0%
23:00
Voelt als: 7.6°
1015.0 hPa 31.4 mm 6.5°
2
0%
 03:44     21:49    Daglengte: 18:05 Woensdag 01 Jun
02:00
Voelt als: 7.2°
1015.5 hPa 31.4 mm 5.8°
2
0%
05:00
Voelt als: 7.6°
1015.8 hPa 31.4 mm 6.5°
2
0%
08:00
14°
1016.6 hPa 31.4 mm 7.2°
3
0%
11:00
17°
1017.1 hPa 31.4 mm 7.7°
3
0%
14:00
18°
1017.1 hPa 31.4 mm 8.5°
3
0%
17:00
19°
1017.1 hPa 31.4 mm 6.7°
3
0%
20:00
15°
1017.9 hPa 31.4 mm 8.5°
5
1%
23:00
11°
1018.5 hPa 31.4 mm 7.0°
3
1%
 03:43     21:50    Daglengte: 18:07 Donderdag 02 Jun
02:00
10°
Voelt als: 8.8°
1018.4 hPa 31.4 mm 7.1°
2
1%
05:00
10°
1018.4 hPa 31.4 mm 6.6°
1
1%
08:00
14°
1018.8 hPa 62.8 mm 7.2°
2
1%
14:00
11°
1019.0 hPa 64.1 mm 9.7°
3
1%
20:00
11°
1017.5 hPa 68.8 mm 9.8°
4
1%
 03:42     21:52    Daglengte: 18:10 Vrijdag 03 Jun
02:00
Voelt als: 8.4°
1017.3 hPa 69.2 mm 8.8°
2
1%
08:00
14°
1017.4 hPa 69.2 mm 11.6°
3
1%
14:00
19°
1016.7 hPa 69.3 mm 12.5°
3
1%
20:00
15°
1015.9 hPa 69.8 mm 12.2°
4
1%
 03:41     21:53    Daglengte: 18:12 Zaterdag 04 Jun
02:00
12°
1014.5 hPa 71.2 mm 11.4°
2
1%
08:00
12°
1011.8 hPa 76.6 mm 11.4°
3
1%
14:00
17°
1010.1 hPa 79.5 mm 15.2°
3
1%
20:00
15°
1007.9 hPa 80.8 mm 13.6°
3
1%
 03:40     21:55    Daglengte: 18:15 Zondag 05 Jun
02:00
13°
1007.0 hPa 80.9 mm 11.9°
3
1%
08:00
13°
1015.0 hPa 0.4 mm 8.2°
0
55%
14:00
16°
1015.4 hPa 0.5 mm 9.5°
1
56%
20:00
14°
1014.6 hPa 0.7 mm 9.0°
1
53%
 03:39     21:56    Daglengte: 18:17 Maandag 06 Jun
02:00
10°
1014.6 hPa 0.7 mm 7.2°
1
49%
08:00
13°
1014.4 hPa 0.9 mm 8.3°
1
59%
14:00
17°
1014.3 hPa 1.6 mm 9.5°
2
56%
20:00
14°
1013.3 hPa 0.5 mm 8.7°
1
50%
 03:38     21:57    Daglengte: 18:19 Dinsdag 07 Jun
02:00
11°
1012.9 hPa 0.1 mm 7.2°
0
47%
08:00
13°
1012.4 hPa 0.3 mm 8.8°
1
50%
14:00
16°
1012.0 hPa 0.9 mm 9.9°
1
64%
20:00
14°
1011.2 hPa 0.4 mm 9.3°
1
65%
 03:37     21:59    Daglengte: 18:22 Woensdag 08 Jun
02:00
11°
1011.0 hPa 0.5 mm 8.0°
0
59%
08:00
13°
1010.9 hPa 0.8 mm 9.0°
0
57%
14:00
17°
1010.9 hPa 0.9 mm 10.3°
2
71%
20:00
14°
1010.2 hPa 0.6 mm 9.5°
1
63%
 03:36     22:00    Daglengte: 18:24 Donderdag 09 Jun
02:00
11°
1010.2 hPa 0.3 mm 8.4°
1
59%
08:00
14°
1010.4 hPa 0.5 mm 9.3°
1
68%
14:00
17°
1010.6 hPa 0.6 mm 10.5°
1
72%
20:00
15°
1010.0 hPa 0.5 mm 10.2°
2
62%
 03:35     22:01    Daglengte: 18:26 Vrijdag 10 Jun
02:00
12°
1010.5 hPa 0.6 mm 8.5°
1
57%
08:00
14°
1010.9 hPa 0.2 mm 9.5°
1
60%
  CAPE Lifted Index Hail Supercell Tornado SRH 3km CL BTM PRES CL TOP PRES Swiss DWD icon SMHI TS
 03:53     21:38    Daglengte: 17:45 Vandaag
09:00 44 J/kg 1.1 K 0 % 0 % 0 % 0 m²/s² 0 0 2.03 1
10:00 92 J/kg 0.7 K 0 % 0 % 0 % 0 m²/s² 0 0 1.06 2
11:00 85 J/kg 0.8 K 0 % 0 % 0 % 0 m²/s² 0 0 1.28 2
12:00 50 J/kg 1.0 K 0 % 0 % 0 % 0 m²/s² 0 0 1.57 2
13:00 63 J/kg 0.7 K 0 % 0 % 0 % 0 m²/s² 0 0 1.63 3
14:00 36 J/kg 0.6 K 0 % 0 % 0 % 0 m²/s² 0 0 2.07 3
15:00 80 J/kg -0.1 K 0 % 0 % 0 % 0 m²/s² 0 0 1.22 80
16:00 187 J/kg -0.9 K 0 % 0 % 0 % 0 m²/s² 0 0 0.69 80
17:00 243 J/kg -1.3 K 0 % 0 % 0 % 0 m²/s² 0 0 -0.04 3
18:00 323 J/kg -1.7 K 0 % 0 % 0 % 0 m²/s² 0 0 -1.46 3
19:00 334 J/kg -2.0 K 0 % 0 % 0 % 0 m²/s² 0 0 -1.76 2
20:00 443 J/kg -2.2 K 0 % 0 % 0 % 0 m²/s² 0 0 -1.33 2
21:00 442 J/kg -2.3 K 0 % 0 % 0 % 0 m²/s² 0 0 -1.1 1
22:00 300 J/kg -2.2 K 0 % 0 % 0 % 0 m²/s² 0 0 -0.67 3
23:00 0 J/kg -1.9 K 0 % 0 % 0 % 0 m²/s² 0 0 -0.94 3
 03:52     21:40    Daglengte: 17:48 Morgen
00:00 0 J/kg -1.4 K 0 % 0 % 0 % 0 m²/s² 0 0 -0.86 3
01:00 0 J/kg -1.4 K 0 % 0 % 0 % 0 m²/s² 0 0 -0.74 3
02:00 0 J/kg -1.4 K 0 % 0 % 0 % 0 m²/s² 0 0 -0.86 3
03:00 0 J/kg -0.8 K 0 % 0 % 0 % 0 m²/s² 0 0 -0.14 80
04:00 0 J/kg -0.6 K 0 % 0 % 0 % 0 m²/s² 0 0 0.27 80
05:00 0 J/kg 0.7 K 0 % 0 % 0 % 0 m²/s² 0 0 1.24 61
06:00 0 J/kg 0.1 K 0 % 0 % 0 % 0 m²/s² 0 0 1.15 61
07:00 0 J/kg -0.4 K 0 % 0 % 0 % 0 m²/s² 0 0 1.01 61
08:00 0 J/kg 1.0 K 0 % 0 % 0 % 0 m²/s² 0 0 2.62 61
09:00 0 J/kg 1.9 K 0 % 0 % 0 % 0 m²/s² 0 0 3.82 61
10:00 7 J/kg 1.5 K 0 % 0 % 0 % 0 m²/s² 0 0 3.12 61
11:00 9 J/kg 1.2 K 0 % 0 % 0 % 0 m²/s² 0 0 2.55 61
12:00 55 J/kg 0.5 K 0 % 0 % 0 % 0 m²/s² 0 0 1.25 61
13:00 39 J/kg 0.6 K 0 % 0 % 0 % 0 m²/s² 0 0 1.14 61
14:00 2 J/kg 1.9 K 0 % 0 % 0 % 0 m²/s² 0 0 2.17 61
15:00 4 J/kg 1.8 K 0 % 0 % 0 % 0 m²/s² 0 0 2.13 61
16:00 1 J/kg 0.7 K 0 % 0 % 0 % 0 m²/s² 0 0 1.06 61
17:00 0 J/kg 0.3 K 0 % 0 % 0 % 0 m²/s² 0 0 0.45 61
18:00 26 J/kg 0.1 K 0 % 0 % 0 % 0 m²/s² 0 0 0.25 61
19:00 76 J/kg -0.3 K 0 % 0 % 0 % 0 m²/s² 0 0 1.35 80
20:00 111 J/kg 0.5 K 0 % 0 % 0 % 0 m²/s² 0 0 0.74 61
21:00 77 J/kg 0.9 K 0 % 0 % 0 % 0 m²/s² 0 0 1.23 61
22:00 51 J/kg 2.5 K 0 % 0 % 0 % 0 m²/s² 0 0 2.83 80
23:00 29 J/kg 3.5 K 0 % 0 % 0 % 0 m²/s² 0 0 3.86 3
 03:50     21:41    Daglengte: 17:51 Zaterdag 28 Mei
00:00 0 J/kg 3.9 K 0 % 0 % 0 % 0 m²/s² 0 0 4.23 80
01:00 0 J/kg 4.2 K 0 % 0 % 0 % 0 m²/s² 0 0 4.56 61
02:00 0 J/kg 3.9 K 0 % 0 % 0 % 0 m²/s² 0 0 4.5 61
03:00 0 J/kg 3.1 K 0 % 0 % 0 % 0 m²/s² 0 0 4.48 3
04:00 0 J/kg 2.4 K 0 % 0 % 0 % 0 m²/s² 0 0 2.73 3
05:00 4 J/kg 3.9 K 0 % 0 % 0 % 0 m²/s² 0 0 4.17 3
06:00 10 J/kg 3.6 K 0 % 0 % 0 % 0 m²/s² 0 0 3.93 3
07:00 21 J/kg 3.5 K 0 % 0 % 0 % 0 m²/s² 0 0 3.8 3
08:00 11 J/kg 3.7 K 0 % 0 % 0 % 0 m²/s² 0 0 4 61
09:00 6 J/kg 3.7 K 0 % 0 % 0 % 0 m²/s² 0 0 4 61
10:00 15 J/kg 3.9 K 0 % 0 % 0 % 0 m²/s² 0 0 4.23 61
11:00 19 J/kg 4.2 K 0 % 0 % 0 % 0 m²/s² 0 0 4.95 61
12:00 46 J/kg 3.7 K 0 % 0 % 0 % 0 m²/s² 0 0 4.81 61
13:00 42 J/kg 3.3 K 0 % 0 % 0 % 0 m²/s² 0 0 4.17 61
14:00 38 J/kg 3.7 K 0 % 0 % 0 % 0 m²/s² 0 0 4.6 61
15:00 54 J/kg 4.1 K 0 % 0 % 0 % 0 m²/s² 0 0 5.21 61
16:00 67 J/kg 4.9 K 0 % 0 % 0 % 0 m²/s² 0 0 6.64 61
17:00 61 J/kg 5.6 K 0 % 0 % 0 % 0 m²/s² 0 0 7.34 61
18:00 51 J/kg 6.1 K 0 % 0 % 0 % 0 m²/s² 0 0 7.39 61
19:00 53 J/kg 6.1 K 0 % 0 % 0 % 0 m²/s² 0 0 7.18 61
20:00 70 J/kg 5.7 K 0 % 0 % 0 % 0 m²/s² 0 0 6.72 3
21:00 74 J/kg 5.5 K 0 % 0 % 0 % 0 m²/s² 0 0 6.88 3
22:00 78 J/kg 4.9 K 0 % 0 % 0 % 0 m²/s² 0 0 6.16 3
23:00 36 J/kg 5.7 K 0 % 0 % 0 % 0 m²/s² 0 0 6.9 1
 03:49     21:43    Daglengte: 17:54 Zondag 29 Mei
00:00 29 J/kg 5.5 K 0 % 0 % 0 % 0 m²/s² 0 0 7.09 2
01:00 0 J/kg 5.6 K 0 % 0 % 0 % 0 m²/s² 0 0 7.4 2
02:00 0 J/kg 6.7 K 0 % 0 % 0 % 0 m²/s² 0 0 8.65 3
03:00 0 J/kg 6.3 K 0 % 0 % 0 % 0 m²/s² 0 0 8.31 2
04:00 0 J/kg 6.3 K 0 % 0 % 0 % 0 m²/s² 0 0 8.04 2
05:00 0 J/kg 6.4 K 0 % 0 % 0 % 0 m²/s² 0 0 7.93 3
06:00 0 J/kg 6.6 K 0 % 0 % 0 % 0 m²/s² 0 0 8.01 3
07:00 0 J/kg 6.5 K 0 % 0 % 0 % 0 m²/s² 0 0 8.03 3
08:00 0 J/kg 6.4 K 0 % 0 % 0 % 0 m²/s² 0 0 7.87 3
Temp Baro Wind Neerslag
  EWN Forecast EWN WRFDA DWD ICON FMI HIRLAM MET Norway GFS
 03:53     21:38    Daglengte: 17:45 Vandaag
11:00 15.1° 1001.1 hPa 3.7 m/s 0.0 mm 15.0° 999.4 hPa 5.1 m/s 0.0 mm 15.5° 1001.5 hPa 2.4 m/s -2.0 mm 15.1° 1001.3 hPa 5.1 m/s 0.0 mm 14.8° 1001.1 hPa 4.4 m/s
14:00 14.7° 1000.0 hPa 3.9 m/s 0.0 mm 14.0° 998.2 hPa 4.5 m/s 0.1 mm 15.1° 1000.5 hPa 2.5 m/s 0.0 mm 14.9° 1000.1 hPa 5.3 m/s 0.0 mm 14.2° 1000.0 hPa 4.0 m/s
17:00 13.5° 999.3 hPa 3.2 m/s 0.0 mm 12.9° 997.2 hPa 3.9 m/s 0.5 mm 13.8° 1000.4 hPa 1.9 m/s 0.9 mm 13.0° 999.4 hPa 3.7 m/s 0.0 mm 13.4° 999.1 hPa 3.4 m/s
20:00 12.7° 998.5 hPa 2.1 m/s 0.0 mm 12.1° 996.8 hPa 3.1 m/s 4.6 mm 14.0° 999.2 hPa 1.3 m/s 0.0 mm 12.4° 998.6 hPa 2.9 m/s 0.0 mm 12.1° 998.4 hPa 2.0 m/s
23:00 11.1° 998.5 hPa 2.7 m/s 0.0 mm 10.6° 996.4 hPa 5.0 m/s 8.3 mm 11.0° 999.1 hPa 0.9 m/s 0.0 mm 11.2° 998.8 hPa 4.2 m/s 0.0 mm 9.5° 998.1 hPa 1.8 m/s
 03:52     21:40    Daglengte: 17:48 Morgen
02:00 10.8° 997.6 hPa 4.1 m/s 1.1 mm 9.6° 995.3 hPa 5.9 m/s 12.9 mm 10.5° 997.7 hPa 1.8 m/s 0.2 mm 11.2° 998.9 hPa 5.5 m/s 0.0 mm 9.5° 997.6 hPa 4.3 m/s
05:00 9.9° 996.5 hPa 5.4 m/s 6.9 mm 8.2° 993.7 hPa 4.9 m/s 13.6 mm 10.4° 996.4 hPa 3.1 m/s 4.0 mm 10.0° 998.6 hPa 5.5 m/s 0.0 mm 8.0° 996.4 hPa 4.3 m/s
08:00 9.8° 995.8 hPa 6.5 m/s 5.8 mm 10.7° 992.6 hPa 6.0 m/s 13.6 mm 9.7° 995.4 hPa 4.1 m/s 4.4 mm 10.3° 998.1 hPa 7.3 m/s 0.0 mm 7.7° 995.8 hPa 4.4 m/s
11:00 10.9° 995.3 hPa 6.5 m/s 4.8 mm 11.9° 991.9 hPa 6.6 m/s 13.6 mm 10.3° 995.1 hPa 3.3 m/s 1.6 mm 14.2° 997.2 hPa 7.0 m/s 0.0 mm 9.1° 995.4 hPa 3.4 m/s
14:00 11.8° 994.9 hPa 6.0 m/s 6.3 mm 10.7° 992.0 hPa 6.9 m/s 14.6 mm 11.6° 994.5 hPa 3.2 m/s 3.6 mm 15.9° 996.5 hPa 6.5 m/s 0.0 mm 11.3° 994.6 hPa 2.7 m/s
17:00 12.2° 994.6 hPa 5.4 m/s 7.1 mm 10.0° 991.3 hPa 6.2 m/s 24.8 mm 12.5° 994.1 hPa 3.0 m/s 0.6 mm 14.6° 996.0 hPa 6.5 m/s 0.0 mm 10.5° 993.9 hPa 1.6 m/s
20:00 11.3° 994.5 hPa 4.3 m/s 0.0 mm 10.6° 991.4 hPa 4.8 m/s 42.8 mm 11.3° 993.7 hPa 1.2 m/s 1.1 mm 13.1° 995.4 hPa 6.9 m/s 0.0 mm 10.0° 993.4 hPa 1.3 m/s
23:00 10.1° 994.7 hPa 2.9 m/s 4.4 mm 9.6° 991.4 hPa 1.9 m/s 61.8 mm 9.9° 993.8 hPa 1.4 m/s 0.6 mm 11.1° 995.4 hPa 4.9 m/s 0.0 mm 8.5° 993.9 hPa 2.7 m/s
 03:50     21:41    Daglengte: 17:51 Zaterdag 28 Mei
02:00 9.0° 994.6 hPa 2.7 m/s 4.4 mm 8.8° 991.4 hPa 2.1 m/s 63.9 mm 8.8° 994.4 hPa 2.3 m/s 0.4 mm 10.4° 994.8 hPa 4.1 m/s 0.0 mm 8.5° 993.8 hPa 4.0 m/s
05:00 8.1° 994.9 hPa 2.4 m/s 0.0 mm 9.5° 991.2 hPa 2.7 m/s 64.4 mm 8.1° 995.1 hPa 1.9 m/s 0.1 mm 7.7° 994.7 hPa 4.0 m/s
08:00 9.9° 995.5 hPa 3.4 m/s 0.0 mm 10.7° 991.7 hPa 4.6 m/s 69.9 mm 10.2° 995.6 hPa 3.5 m/s 0.1 mm 8.5° 995.9 hPa 3.3 m/s
11:00 11.8° 997.1 hPa 5.0 m/s 24.8 mm 14.0° 992.9 hPa 5.2 m/s 72.6 mm 11.9° 997.2 hPa 3.9 m/s 0.9 mm 9.1° 997.2 hPa 4.1 m/s
14:00 12.1° 998.3 hPa 4.1 m/s 22.0 mm 14.3° 994.0 hPa 4.3 m/s 73.0 mm 12.0° 998.4 hPa 3.4 m/s 1.5 mm 9.2° 998.6 hPa 4.3 m/s
17:00 11.8° 999.4 hPa 4.2 m/s 22.4 mm 13.3° 996.1 hPa 5.5 m/s 74.0 mm 12.0° 999.2 hPa 2.3 m/s 1.7 mm 8.8° 999.7 hPa 5.3 m/s
20:00 11.3° 1000.2 hPa 3.5 m/s 26.1 mm 11.7° 997.5 hPa 3.7 m/s 75.0 mm 11.6° 999.7 hPa 2.2 m/s 1.5 mm 8.7° 1000.7 hPa 5.9 m/s
23:00 10.2° 1000.7 hPa 3.8 m/s 25.8 mm 11.0° 997.7 hPa 4.2 m/s 76.1 mm 10.4° 1000.1 hPa 3.0 m/s 0.0 mm 7.5° 1002.3 hPa 3.8 m/s
 03:49     21:43    Daglengte: 17:54 Zondag 29 Mei
02:00 8.4° 1000.7 hPa 3.8 m/s 0.0 mm 8.7° 998.3 hPa 4.7 m/s 76.1 mm 8.4° 1001.3 hPa 3.6 m/s 0.0 mm 7.0° 1002.7 hPa 4.7 m/s
05:00 7.6° 1001.4 hPa 2.6 m/s 0.0 mm 7.5° 998.5 hPa 4.4 m/s 76.1 mm 7.6° 1002.1 hPa 2.1 m/s 0.0 mm 6.7° 1003.1 hPa 4.8 m/s
08:00 9.8° 1002.1 hPa 3.5 m/s 0.0 mm 9.7° 999.1 hPa 4.4 m/s 76.1 mm 9.8° 1002.9 hPa 3.3 m/s 0.0 mm 8.6° 1004.2 hPa 5.1 m/s
11:00 11.2° 1005.2 hPa 4.7 m/s 29.7 mm 11.2° 1005.2 hPa 4.7 m/s 29.7 mm
14:00 12.5° 1006.0 hPa 3.3 m/s 29.8 mm 12.5° 1006.0 hPa 3.3 m/s 29.8 mm
17:00 12.7° 1007.0 hPa 2.6 m/s 30.1 mm 12.7° 1007.0 hPa 2.6 m/s 30.1 mm
20:00 11.4° 1007.7 hPa 1.4 m/s 30.3 mm 11.4° 1007.7 hPa 1.4 m/s 30.3 mm
23:00 8.5° 1008.6 hPa 1.3 m/s 30.3 mm 8.5° 1008.6 hPa 1.3 m/s 30.3 mm
 03:47     21:45    Daglengte: 17:58 Maandag 30 Mei
02:00 8.6° 1008.8 hPa 0.9 m/s 30.3 mm 8.6° 1008.8 hPa 0.9 m/s 30.3 mm
05:00 8.6° 1008.9 hPa 0.5 m/s 30.3 mm 8.6° 1008.9 hPa 0.5 m/s 30.3 mm
08:00 10.0° 1009.6 hPa 0.3 m/s 30.3 mm 10.0° 1009.6 hPa 0.3 m/s 30.3 mm
11:00 12.4° 1010.2 hPa 0.6 m/s 30.6 mm 12.4° 1010.2 hPa 0.6 m/s 30.6 mm
14:00 13.4° 1010.4 hPa 1.9 m/s 31.0 mm 13.4° 1010.4 hPa 1.9 m/s 31.0 mm
17:00 12.7° 1011.0 hPa 3.1 m/s 31.3 mm 12.7° 1011.0 hPa 3.1 m/s 31.3 mm
20:00 11.9° 1011.6 hPa 2.9 m/s 31.4 mm 11.9° 1011.6 hPa 2.9 m/s 31.4 mm
23:00 8.4° 1012.4 hPa 2.6 m/s 31.4 mm 8.4° 1012.4 hPa 2.6 m/s 31.4 mm
 03:46     21:47    Daglengte: 18:01 Dinsdag 31 Mei
02:00 8.6° 1012.9 hPa 2.0 m/s 31.4 mm 8.6° 1012.9 hPa 2.0 m/s 31.4 mm
05:00 9.2° 1013.3 hPa 1.7 m/s 31.4 mm 9.3° 1013.3 hPa 1.7 m/s 31.4 mm
08:00 12.0° 1014.0 hPa 2.3 m/s 31.4 mm 12.0° 1014.0 hPa 2.3 m/s 31.4 mm
11:00 14.8° 1014.1 hPa 3.0 m/s 31.4 mm 14.8° 1014.1 hPa 3.0 m/s 31.4 mm
14:00 14.8° 1014.1 hPa 4.3 m/s 31.4 mm 14.8° 1014.1 hPa 4.3 m/s 31.4 mm
17:00 14.8° 1014.3 hPa 3.9 m/s 31.4 mm 14.8° 1014.3 hPa 3.9 m/s 31.4 mm
20:00 12.7° 1014.4 hPa 3.3 m/s 31.4 mm 12.7° 1014.4 hPa 3.3 m/s 31.4 mm
23:00 8.8° 1015.0 hPa 2.2 m/s 31.4 mm 8.8° 1015.0 hPa 2.2 m/s 31.4 mm
 03:44     21:49    Daglengte: 18:05 Woensdag 01 Jun
02:00 8.2° 1015.5 hPa 1.8 m/s 31.4 mm 8.2° 1015.5 hPa 1.8 m/s 31.4 mm
05:00 8.6° 1015.8 hPa 1.9 m/s 31.4 mm 8.6° 1015.8 hPa 1.9 m/s 31.4 mm
08:00 13.6° 1016.6 hPa 2.7 m/s 31.4 mm 13.6° 1016.6 hPa 2.7 m/s 31.4 mm
11:00 16.7° 1017.1 hPa 3.2 m/s 31.4 mm 16.7° 1017.1 hPa 3.2 m/s 31.4 mm
14:00 18.2° 1017.1 hPa 2.8 m/s 31.4 mm 18.2° 1017.1 hPa 2.8 m/s 31.4 mm
17:00 18.9° 1017.1 hPa 3.0 m/s 31.4 mm 18.9° 1017.1 hPa 3.0 m/s 31.4 mm
20:00 14.7° 1017.9 hPa 4.9 m/s 31.4 mm 14.7° 1017.9 hPa 4.9 m/s 31.4 mm
23:00 11.4° 1018.5 hPa 3.0 m/s 31.4 mm 11.4° 1018.5 hPa 2.9 m/s 31.4 mm
 03:43     21:50    Daglengte: 18:07 Donderdag 02 Jun
02:00 9.5° 1018.4 hPa 1.8 m/s 31.4 mm 9.5° 1018.4 hPa 1.8 m/s 31.4 mm
05:00 10.1° 1018.4 hPa 1.3 m/s 31.4 mm 10.1° 1018.4 hPa 1.3 m/s 31.4 mm
08:00 13.8° 1018.8 hPa 1.8 m/s 31.4 mm 13.8° 1018.8 hPa 1.8 m/s 31.4 mm
14:00 11.0° 1019.0 hPa 3.1 m/s 32.7 mm 11.0° 1019.0 hPa 3.1 m/s 32.7 mm
20:00 10.9° 1017.5 hPa 3.9 m/s 34.6 mm 10.9° 1017.5 hPa 3.9 m/s 34.6 mm
 03:42     21:52    Daglengte: 18:10 Vrijdag 03 Jun
02:00 9.4° 1017.3 hPa 2.1 m/s 34.6 mm 9.4° 1017.3 hPa 2.1 m/s 34.6 mm
08:00 14.4° 1017.4 hPa 2.9 m/s 34.6 mm 14.4° 1017.4 hPa 2.9 m/s 34.6 mm
14:00 19.4° 1016.7 hPa 3.4 m/s 34.7 mm 19.4° 1016.7 hPa 3.4 m/s 34.7 mm
20:00 15.0° 1015.9 hPa 3.9 m/s 34.9 mm 15.0° 1015.9 hPa 3.9 m/s 34.9 mm
 03:41     21:53    Daglengte: 18:12 Zaterdag 04 Jun
02:00 12.2° 1014.5 hPa 2.3 m/s 36.2 mm 12.2° 1014.5 hPa 2.3 m/s 36.2 mm
08:00 12.0° 1011.8 hPa 2.7 m/s 38.6 mm 12.0° 1011.8 hPa 2.7 m/s 38.6 mm
14:00 16.5° 1010.1 hPa 3.2 m/s 40.3 mm 16.5° 1010.1 hPa 3.2 m/s 40.3 mm
20:00 14.6° 1007.9 hPa 3.0 m/s 40.4 mm 14.6° 1007.9 hPa 3.0 m/s 40.4 mm
 03:40     21:55    Daglengte: 18:15 Zondag 05 Jun
02:00 12.7° 1007.0 hPa 2.8 m/s 40.5 mm 12.7° 1007.0 hPa 2.8 m/s 40.5 mm
08:00 12.8° 1015.0 hPa 0.5 m/s 0.4 mm
14:00 16.5° 1015.4 hPa 1.4 m/s 0.5 mm
20:00 14.1° 1014.6 hPa 0.8 m/s 0.7 mm
 03:39     21:56    Daglengte: 18:17 Maandag 06 Jun
02:00 10.5° 1014.6 hPa 0.7 m/s 0.7 mm
08:00 13.0° 1014.4 hPa 0.9 m/s 0.9 mm
14:00 16.5° 1014.3 hPa 1.7 m/s 1.6 mm
20:00 14.0° 1013.3 hPa 1.2 m/s 0.5 mm
 03:38     21:57    Daglengte: 18:19 Dinsdag 07 Jun
02:00 10.9° 1012.9 hPa 0.4 m/s 0.1 mm
08:00 13.4° 1012.4 hPa 0.8 m/s 0.3 mm
14:00 16.2° 1012.0 hPa 1.4 m/s 0.9 mm
20:00 13.8° 1011.2 hPa 1.2 m/s 0.4 mm
 03:37     21:59    Daglengte: 18:22 Woensdag 08 Jun
02:00 10.9° 1011.0 hPa 0.3 m/s 0.5 mm
08:00 13.3° 1010.9 hPa 0.1 m/s 0.8 mm
14:00 16.6° 1010.9 hPa 2.0 m/s 0.9 mm
20:00 14.4° 1010.2 hPa 1.4 m/s 0.6 mm
 03:36     22:00    Daglengte: 18:24 Donderdag 09 Jun
02:00 11.4° 1010.2 hPa 0.6 m/s 0.3 mm
08:00 13.6° 1010.4 hPa 0.5 m/s 0.5 mm
14:00 17.0° 1010.6 hPa 1.3 m/s 0.6 mm
20:00 15.3° 1010.0 hPa 1.6 m/s 0.5 mm